[[{"header":{"parameterUnit":"m.s-1","parameterCategory":1,"la1":30.2991,"la2":30.254,"lo1":-89.0895,"lo2":-89.0444,"dy":0.0017,"dx":0.0017,"nx":28,"ny":28,"refTime":"2023-07-25T21:00:00:Z","depth":0,"parameterNumber":2,"parameterNumberName":"U-component_of_WINDS"},"data":[0,0,0,0,0,0,0,0,0,0,0,0,0,0,0,0,0,0,0,0,0,0,0,0,0,0,0,0,0,0,0,0,0,0,0,0,0,0,0,0,0,0,0,0,0,0,0,0,0,0,0,0,0,0,0,0,0,0,0.0988,0.0989,0,0.1104,0.1105,0.1107,0.1117,0.1116,0.1114,0.1113,0.1236,0.124,0.1245,0,0,0,0,0,0,0,0,0,0,0,0,0,0.0776,0.078,0.0987,0.0989,0.099,0.1104,0.1105,0.1107,0.1117,0.1116,0.1114,0.1113,0.1235,0.124,0.1245,0,0,0,0,0,0,0,0,0,0,0,0,0,0.0878,0.0781,0.0987,0.1009,0.1012,0.1103,0.1105,0.1107,0.1118,0.1116,0.1114,0.1112,0.1233,0.1239,0.1246,0.1324,0,0,0.1266,0.1269,0,0,0,0,0,0,0,0,0.0872,0.0886,0.1004,0.1008,0.1011,0.1094,0.1076,0.118,0.1118,0.1078,0.1113,0.1111,0.1191,0.1201,0.1227,0.133,0.1335,0.1267,0.1271,0.1274,0.1276,0,0,0,0,0,0,0,0.0865,0.0881,0.1034,0.1006,0.101,0.1014,0.1026,0.1096,0.1143,0.1081,0.1082,0.1095,0.1192,0.122,0.123,0.1337,0.1267,0.1273,0.1277,0.1279,0.151,0.1512,0,0,0,0,0,0,0.0853,0.0875,0.103,0.1037,0.0936,0.1019,0.1033,0.1069,0.1143,0.1152,0.1097,0.1096,0.121,0.1222,0.1234,0.133,0.1274,0.128,0.1284,0.1507,0.151,0.1512,0,0,0,0,0,0,0.0849,0.0867,0.1025,0.0956,0.0977,0.1025,0.1066,0.1073,0.1101,0.1155,0.1163,0.1117,0.1209,0.1225,0.1301,0.1334,0.1283,0.1289,0.1505,0.1508,0.1511,0.1522,0,0,0,0,0,0,0.0843,0.0866,0.0895,0.0957,0.098,0.109,0.1068,0.1076,0.1112,0.1111,0.1175,0.1184,0.1208,0.1291,0.1308,0.1342,0.1294,0.1502,0.1506,0.151,0.1519,0.1525,0.1531,0,0,0,0,0,0.0835,0.0895,0.0897,0.0916,0.1019,0.1092,0.1105,0.1131,0.1114,0.1145,0.1179,0.1182,0.1328,0.1299,0.1318,0.1355,0.15,0.1505,0.151,0.1516,0.1524,0.1531,0,0,0,0,0,0,0.0838,0.0904,0.0906,0.0988,0.1034,0.1093,0.1133,0.1138,0.1191,0.1189,0.1219,0.1234,0.1309,0.134,0.1306,0.1434,0.1412,0.1421,0.1411,0.1419,0.1424,0.1415,0.13,0,0,0,0,0,0.0848,0.0901,0.0956,0.1022,0.1045,0.1085,0.1118,0.1133,0.1183,0.1203,0.1243,0.1292,0.1348,0.1385,0.1441,0.1523,0.1537,0.1558,0.1564,0.1568,0.1576,0.162,0.163,0.1528,0.1528,0.1528,0,0,0.0869,0.0911,0.0944,0.1024,0.1062,0.1116,0.1102,0.1161,0.1202,0.1213,0.1287,0.1318,0.1374,0.1454,0.1491,0.1482,0.1607,0.1574,0.1578,0.1583,0.1626,0.1636,0.1644,0.1531,0.1531,0.153,0,0,0.0936,0.0973,0.1032,0.107,0.1126,0.1152,0.1166,0.1225,0.1245,0.132,0.1328,0.1378,0.1475,0.1514,0.1547,0.1627,0.1631,0.1644,0.1674,0.1718,0.1726,0.1733,0.1761,0.177,0.1651,0.1651,0.1651,0,0.0956,0.1038,0.1062,0.112,0.1155,0.1166,0.1225,0.1261,0.1333,0.1357,0.1345,0.1466,0.1505,0.1593,0.1612,0.1639,0.1656,0.1637,0.1723,0.173,0.1737,0.1764,0.1774,0.1652,0.1652,0.1652,0.1652,0,0.1059,0.1115,0.1156,0.1224,0.1263,0.1322,0.1356,0.1393,0.1404,0.1431,0.1507,0.1553,0.1617,0.164,0.1653,0.173,0.1722,0.1716,0.1695,0.1748,0.1773,0.1784,0.1654,0.1653,0.1653,0.1653,0,0,0.1132,0.121,0.1225,0.1255,0.1317,0.1362,0.1421,0.1482,0.1513,0.1562,0.1612,0.1693,0.1687,0.1724,0.1742,0.178,0.1838,0.1769,0.1771,0.178,0.1925,0.1929,0.194,0.1841,0.1844,0.1845,0.192,0,0.1205,0.1309,0.1332,0.1422,0.1474,0.1484,0.1535,0.1579,0.1606,0.1654,0.1684,0.1741,0.1729,0.1752,0.179,0.1823,0.1868,0.1818,0.1889,0.1891,0.1874,0.1954,0.1958,0.2027,0.193,0.1932,0.1933,0,0.1304,0.1354,0.1448,0.1502,0.1525,0.1571,0.1628,0.1674,0.1724,0.1741,0.1781,0.1793,0.1855,0.1831,0.1916,0.1882,0.1912,0.1933,0.1936,0.1943,0.1915,0.1963,0.2049,0.2059,0.195,0.1948,0.1947,0,0.1347,0.1437,0.1505,0.1531,0.1596,0.1627,0.1656,0.1704,0.1738,0.1788,0.1811,0.1868,0.19,0.1944,0.1972,0.1951,0.2055,0.2033,0.207,0.2069,0.2092,0.209,0.2183,0.2112,0.2111,0.2111,0.2111,0,0.1426,0.1483,0.1525,0.1567,0.1631,0.1657,0.172,0.1749,0.1791,0.1838,0.1851,0.1896,0.193,0.1979,0.2001,0.2068,0.2082,0.2097,0.2103,0.2096,0.2094,0.2116,0.2112,0.2114,0.2113,0.2113,0.2112,0,0.1485,0.1515,0.1589,0.1643,0.1658,0.1703,0.175,0.1791,0.1817,0.1877,0.1893,0.1934,0.1993,0.2025,0.2099,0.2113,0.2188,0.2191,0.2171,0.2173,0.2208,0.2204,0.2319,0.2335,0.2253,0.2253,0.2254,0,0.1533,0.1577,0.1635,0.1667,0.1696,0.1748,0.1783,0.181,0.1846,0.1905,0.1938,0.1997,0.2046,0.2139,0.2176,0.2232,0.2236,0.2273,0.2245,0.2236,0.2236,0.2233,0.2237,0.2278,0.2278,0.2279,0.2279,0,0.1615,0.1627,0.1677,0.1731,0.1771,0.1816,0.186,0.1886,0.192,0.1959,0.2018,0.2056,0.213,0.2188,0.2247,0.2277,0.2284,0.2288,0.2299,0.2293,0.2279,0.2286,0.2183,0.2285,0.2284,0.2284,0.2284,0.2284,0.167,0.1709,0.1755,0.1809,0.1845,0.1885,0.1926,0.1956,0.2005,0.2067,0.208,0.2142,0.219,0.2269,0.2301,0.235,0.2343,0.236,0.2364,0.2367,0.2368,0.2271,0.2361,0.2361,0.2361,0.236,0.236,0,0.1752,0.1782,0.1831,0.1891,0.1934,0.1935,0.1983,0.2018,0.2073,0.2116,0.2163,0.223,0.2286,0.2326,0.2384,0.2415,0.242,0.2429,0.2427,0.2434,0.2372,0.2356,0.2424,0.2424,0.2424,0.2424,0.2424,0.2424,0.18,0.1865,0.1882,0.1965,0.1995,0.2055,0.2082,0.2119,0.2154,0.2228,0.2274,0.2299,0.2342,0.2401,0.2453,0.2463,0.2483,0.2493,0.2503,0.2445,0.2438,0.2432,0.2417,0.2497,0.2497,0.2561,0.2562,0.2562]},{"header":{"parameterUnit":"m.s-1","parameterCategory":1,"la1":30.2991,"la2":30.254,"lo1":-89.0895,"lo2":-89.0444,"dy":0.0017,"dx":0.0017,"nx":28,"ny":28,"refTime":"2023-07-25T21:00:00:Z","depth":0,"parameterNumber":3,"parameterNumberName":"V-component_of_WINDS"},"data":[0,0,0,0,0,0,0,0,0,0,0,0,0,0,0,0,0,0,0,0,0,0,0,0,0,0,0,0,0,0,0,0,0,0,0,0,0,0,0,0,0,0,0,0,0,0,0,0,0,0,0,0,0,0,0,0,0,0,2.5635,2.5634,0,2.5597,2.5597,2.5596,2.5604,2.5605,2.5606,2.5606,2.5563,2.5561,2.556,0,0,0,0,0,0,0,0,0,0,0,0,0,2.5708,2.5707,2.5635,2.5634,2.5634,2.5597,2.5597,2.5596,2.5604,2.5605,2.5606,2.5607,2.5564,2.5562,2.5559,0,0,0,0,0,0,0,0,0,0,0,0,0,2.5674,2.5706,2.5635,2.5634,2.5633,2.5597,2.5597,2.5596,2.5604,2.5605,2.5606,2.5607,2.5564,2.5562,2.5559,2.5521,0,0,2.5551,2.555,0,0,0,0,0,0,0,0,2.5676,2.5671,2.5634,2.5634,2.5633,2.5607,2.5607,2.5571,2.5604,2.5615,2.5606,2.5608,2.5576,2.5573,2.5563,2.5519,2.5517,2.555,2.5549,2.5548,2.5547,0,0,0,0,0,0,0,2.5678,2.5673,2.562,2.5634,2.5633,2.5633,2.5629,2.56,2.559,2.5614,2.5615,2.561,2.5576,2.5566,2.5562,2.5516,2.5551,2.5548,2.5546,2.5545,2.5436,2.5434,0,0,0,0,0,0,2.5682,2.5675,2.5621,2.5619,2.5658,2.5631,2.5627,2.5614,2.559,2.5588,2.5609,2.5611,2.557,2.5565,2.5561,2.5512,2.5548,2.5545,2.5544,2.5437,2.5435,2.5434,0,0,0,0,0,0,2.5683,2.5677,2.5623,2.5647,2.564,2.5629,2.5614,2.5613,2.5602,2.5587,2.5585,2.5601,2.5571,2.5565,2.553,2.5511,2.5544,2.5541,2.5438,2.5436,2.5435,2.5416,0,0,0,0,0,0,2.5686,2.5678,2.5664,2.5647,2.5639,2.5594,2.5613,2.5611,2.5598,2.56,2.5578,2.5576,2.5571,2.5534,2.5528,2.5508,2.5539,2.544,2.5438,2.5435,2.5418,2.5414,2.541,0,0,0,0,0,2.5688,2.566,2.5664,2.5657,2.5622,2.5593,2.5589,2.5585,2.5597,2.5582,2.5572,2.5576,2.5515,2.5531,2.5523,2.5502,2.5441,2.5438,2.5436,2.542,2.5415,2.541,0,0,0,0,0,0,2.5674,2.5658,2.5661,2.5627,2.5612,2.5595,2.5576,2.558,2.5559,2.5561,2.5557,2.5552,2.5516,2.5506,2.5525,2.5463,2.5479,2.5475,2.547,2.5465,2.5461,2.5463,2.5537,0,0,0,0,0,2.5668,2.5647,2.5633,2.5604,2.5597,2.5588,2.5575,2.5574,2.5557,2.555,2.5537,2.5519,2.5496,2.548,2.5458,2.5418,2.5412,2.5399,2.5395,2.5392,2.5387,2.5362,2.5356,2.5425,2.5425,2.5425,0,0,2.5653,2.5641,2.5628,2.5601,2.5589,2.5566,2.5582,2.5558,2.554,2.5546,2.5512,2.5503,2.5482,2.5444,2.5427,2.5435,2.5367,2.5388,2.5386,2.5383,2.5359,2.5352,2.5346,2.5423,2.5423,2.5423,0,0,2.5613,2.5604,2.5578,2.5565,2.5547,2.5541,2.5535,2.5518,2.5511,2.5479,2.5482,2.546,2.542,2.5404,2.5391,2.5345,2.5348,2.5338,2.5315,2.5291,2.5286,2.5281,2.5262,2.5255,2.5334,2.5334,2.5334,0,2.5597,2.5564,2.5563,2.5538,2.5525,2.5531,2.5503,2.549,2.5465,2.5455,2.5465,2.5413,2.54,2.5357,2.5346,2.5336,2.5327,2.534,2.5287,2.5282,2.5277,2.5259,2.5252,2.5333,2.5333,2.5333,2.5333,0,2.5543,2.552,2.5501,2.5477,2.5462,2.5435,2.5429,2.5413,2.5413,2.5406,2.537,2.5355,2.5328,2.5319,2.5318,2.5275,2.528,2.5289,2.5305,2.527,2.5252,2.5245,2.5331,2.5332,2.5332,2.5332,0,0,2.5493,2.5469,2.5462,2.545,2.5431,2.5412,2.5385,2.536,2.5346,2.5328,2.5303,2.5269,2.5276,2.5261,2.5259,2.5238,2.52,2.5249,2.5248,2.5238,2.5148,2.514,2.5132,2.5202,2.5201,2.52,2.5149,0,2.545,2.5403,2.5401,2.5358,2.5335,2.5341,2.5316,2.53,2.5293,2.5271,2.5262,2.5237,2.525,2.524,2.522,2.5209,2.5181,2.5213,2.5176,2.5175,2.5178,2.5123,2.5115,2.5067,2.5142,2.5141,2.514,0,2.5393,2.5374,2.5329,2.5311,2.5301,2.528,2.5256,2.5236,2.5217,2.5213,2.5196,2.5197,2.5166,2.5185,2.5142,2.5163,2.5148,2.514,2.5138,2.5132,2.5153,2.5113,2.5052,2.5044,2.513,2.5131,2.5131,0,2.5357,2.5321,2.5289,2.5279,2.5258,2.5243,2.5233,2.5215,2.52,2.5179,2.5168,2.5144,2.5129,2.5109,2.5102,2.5117,2.5057,2.5077,2.505,2.505,2.5036,2.5036,2.4969,2.5031,2.5031,2.5031,2.5031,0,2.5308,2.5279,2.5272,2.5252,2.5219,2.5217,2.5184,2.5175,2.5159,2.5136,2.5139,2.5116,2.511,2.5085,2.5079,2.5042,2.5036,2.503,2.5028,2.5028,2.5028,2.5016,2.5018,2.5029,2.5029,2.503,2.503,0,2.5262,2.5257,2.5221,2.5204,2.5199,2.5176,2.516,2.5139,2.5133,2.5102,2.5095,2.5083,2.5054,2.5046,2.5011,2.5007,2.4963,2.4965,2.4969,2.4968,2.4941,2.4943,2.4861,2.4849,2.4922,2.4921,2.4921,0,2.5229,2.5207,2.5188,2.5174,2.5163,2.5139,2.5124,2.5121,2.5104,2.508,2.5062,2.5034,2.5011,2.4964,2.4951,2.4923,2.4924,2.4897,2.4919,2.4919,2.4919,2.492,2.4916,2.4892,2.4891,2.489,2.489,0,2.5171,2.5169,2.5148,2.5125,2.5107,2.5088,2.507,2.5058,2.5051,2.5032,2.5003,2.4986,2.495,2.4921,2.4893,2.4881,2.4883,2.4883,2.4875,2.4873,2.4875,2.4871,2.4955,2.4885,2.4885,2.4886,2.4886,2.4886,2.5129,2.5109,2.5092,2.5067,2.5054,2.5037,2.5016,2.5007,2.4983,2.4955,2.4954,2.4922,2.4902,2.4865,2.4851,2.4824,2.4831,2.4821,2.4817,2.4814,2.481,2.4882,2.4819,2.4819,2.482,2.482,2.482,0,2.5068,2.5058,2.5035,2.501,2.499,2.4997,2.4977,2.4959,2.4931,2.4914,2.4891,2.4857,2.4828,2.4813,2.4784,2.4765,2.4765,2.4758,2.4757,2.4754,2.4807,2.4815,2.4758,2.4758,2.4758,2.4758,2.4758,2.4758,2.5034,2.5,2.4996,2.4954,2.4943,2.4913,2.4901,2.4884,2.4869,2.4831,2.4808,2.4799,2.4781,2.4751,2.4724,2.4721,2.4708,2.4699,2.4695,2.4744,2.475,2.4756,2.4764,2.4697,2.4697,2.4644,2.4644,2.4643]}]]